Location: ????? ????
(37.9717°N, 23.4051°E)
Time: 14:47:15
(UTC+00:00)

Cosmos 1975 Rocket - Pass Details

Date: 18 April 2024
Orbit: 599 x 631 km, 82.5° (Epoch: 19 May)

Event Time Altitude Azimuth Distance (km) Brightness Sun altitude
Rises 17:34:41 0° 0° (N) 2,865 6.7 -6.3°
Reaches altitude 10° 17:37:01 10° 8° (N) 1,954 5.8 -6.8°
Maximum altitude 17:41:06 40° 79° (E) 891 3.5 -7.5°
Drops below altitude 10° 17:45:07 10° 149° (SSE) 1,934 5.1 -8.3°
Enters shadow 17:46:55 - 156° (SSE) 2,628 5.9 -8.6°
